Clayton Lake, ME

6:21 PM EST on January 23, 2017 (GMT -0500)
Clayton Lake

Weather History for K40B - April, 2014

Change the Weather History Date:

Wednesday, April 23, 2014

  Actual Average Record
Temperature  
Mean Temperature 38 °F -  
Max Temperature 43 °F 47 °F 61 °F (2006)
Min Temperature 33 °F 26 °F 24 °F (2013)
Degree Days  
Heating Degree Days 27    
Moisture  
Dew Point 37 °F    
Average Humidity 97    
Maximum Humidity 100    
Minimum Humidity 86    
Precipitation  
Precipitation 0.14 in - - ()
Sea Level Pressure  
Sea Level Pressure 29.49 in    
Wind  
Wind Speed 3 mph (WNW)    
Max Wind Speed 7 mph    
Max Gust Speed 16 mph    
Averages and records for this station are not official NWS values.
T = Trace of Precipitation, MM = Missing Value Source: NWS Daily Summary

Daily Weather History Graph

Daily Weather History Graph

Search for Another Location

Airport or City:

Trip Planner

Search our weather history database for the weather conditions in past years. The results will help you decide how hot, cold, wet, or windy it might be!

Date:

Astronomy

Apr. 23, 2014 Rise Set
Actual Time 5:36 AM EDT 7:36 PM EDT
Civil Twilight 5:04 AM EDT 8:09 PM EDT
Nautical Twilight 4:24 AM EDT 8:49 PM EDT
Astronomical Twilight 3:40 AM EDT 9:34 PM EDT
Moon 2:28 AM EDT 1:20 PM EDT
Length of Visible Light 15h 05m
Length of Day
14h 00m
Waning Crescent, 35% of the Moon is Illuminated
Apr 23
Waning Crescent
Apr 29
New
May 6
First Quarter
May 14
Full
May 21
Last Quarter

Hourly Weather History & Observations

Time (EDT) Temp. Windchill Dew Point Humidity Pressure Visibility Wind Dir Wind Speed Gust Speed Precip Events Conditions
12:16 AM 42.4 °F 40.7 °F 42.1 °F 99% 29.43 in - Variable 3.5 mph - 0.02 in   Unknown
1:16 AM 41.9 °F 40.0 °F 41.7 °F 99% 29.42 in - Variable 3.5 mph - 0.01 in   Unknown
2:16 AM 41.9 °F - 41.9 °F 100% 29.40 in - Variable 2.3 mph - 0.04 in   Unknown
3:16 AM 42.3 °F - 42.3 °F 100% 29.39 in - Variable 2.3 mph - 0.04 in   Unknown
4:16 AM 43.0 °F - 42.8 °F 99% 29.38 in - Variable 2.3 mph - 0.02 in   Unknown
5:16 AM 42.3 °F - 42.1 °F 99% 29.38 in - Calm Calm - 0.01 in   Unknown
6:16 AM 41.9 °F - 41.7 °F 99% 29.39 in - Calm Calm - N/A   Unknown
7:16 AM 41.0 °F - 41.0 °F 100% 29.41 in - Calm Calm - N/A   Unknown
8:16 AM 38.8 °F - 38.7 °F 99% 29.43 in - Calm Calm - 0.00 in   Unknown
9:16 AM 36.7 °F 32.9 °F 36.5 °F 99% 29.45 in - Variable 4.6 mph - 0.00 in   Unknown
10:16 AM 35.8 °F 33.0 °F 35.6 °F 99% 29.46 in - Variable 3.5 mph - N/A   Unknown
11:16 AM 35.8 °F 33.0 °F 35.2 °F 98% 29.48 in - Variable 3.5 mph 11.5 mph N/A   Unknown
12:16 PM 35.4 °F 31.5 °F 34.5 °F 97% 29.48 in - Variable 4.6 mph 15.0 mph N/A   Unknown
1:16 PM 35.4 °F 30.5 °F 34.2 °F 95% 29.49 in - Variable 5.8 mph 15.0 mph N/A   Unknown
2:16 PM 35.1 °F 29.3 °F 33.4 °F 94% 29.52 in - WNW 6.9 mph 16.1 mph N/A   Unknown
3:16 PM 35.1 °F 31.0 °F 33.3 °F 93% 29.52 in - Variable 4.6 mph 16.1 mph N/A   Unknown
4:16 PM 35.1 °F 31.0 °F 31.3 °F 86% 29.54 in - Variable 4.6 mph 13.8 mph N/A   Unknown
5:16 PM 35.1 °F 32.2 °F 32.0 °F 89% 29.56 in - Variable 3.5 mph - N/A   Unknown
6:16 PM 34.0 °F 31.0 °F 33.1 °F 96% 29.57 in - Variable 3.5 mph - N/A   Unknown
7:16 PM 33.6 °F 30.6 °F 32.9 °F 97% 29.59 in - Variable 3.5 mph - 0.00 in   Unknown
8:16 PM 33.4 °F 30.4 °F 32.9 °F 98% 29.60 in - Variable 3.5 mph - 0.01 in   Unknown
9:16 PM 33.3 °F - 32.7 °F 98% 29.60 in - Calm Calm - N/A   Unknown
10:16 PM 33.4 °F - 32.9 °F 98% 29.61 in - Calm Calm - 0.01 in   Unknown
11:16 PM 33.3 °F - 32.7 °F 98% 29.60 in - Calm Calm - N/A   Unknown